Sault Ste Marie, MI

6:24 AM EDT on September 26, 2017 (GMT -0400)
Sault Ste Marie Municipal / Sanderson Field

Weather History for KANJ - February, 2014

Change the Weather History Date:

Friday, February 14, 2014

  Actual Average Record
Temperature  
Mean Temperature 17 °F 17 °F  
Max Temperature 27 °F 26 °F 42 °F (2002)
Min Temperature 7 °F 9 °F -21 °F (1899)
Degree Days  
Heating Degree Days 48 48  
Month to date heating degree days 787 683  
Since 1 July heating degree days 6016 5483  
Moisture  
Dew Point 14 °F    
Average Humidity 82    
Maximum Humidity 91    
Minimum Humidity 73    
Precipitation  
Precipitation 0.10 in 0.05 in 0.49 in (1915)
Month to date precipitation 0.20 0.69  
Year to date precipitation 2.79 2.88  
Snow  
Snow 2.90 in 0.60 in 5.20 in (1950)
Month to date snowfall 6.0 10.5  
Since 1 July snowfall 96.2 92.1  
Snow Depth 25.00 in    
Sea Level Pressure  
Sea Level Pressure 29.60 in    
Wind  
Wind Speed 6 mph (North)    
Max Wind Speed 20 mph    
Max Gust Speed 28 mph    
Visibility 3 miles    
Events Snow    
T = Trace of Precipitation, MM = Missing Value Source: NWS Daily Summary

Daily Weather History Graph

Daily Weather History Graph

Search for Another Location

Airport or City:

Trip Planner

Search our weather history database for the weather conditions in past years. The results will help you decide how hot, cold, wet, or windy it might be!

Date:

Astronomy

Feb. 14, 2014 Rise Set
Actual Time 7:42 AM EST 6:01 PM EST
Civil Twilight 7:11 AM EST 6:32 PM EST
Nautical Twilight 6:36 AM EST 7:07 PM EST
Astronomical Twilight 6:01 AM EST 7:42 PM EST
Moon 6:07 PM EST (2/14) 7:07 AM EST (2/14)
Length of Visible Light 11h 21m
Length of Day
10h 18m
Full, 100% of the Moon is Illuminated
Feb 14
Full
Feb 14
Full
Feb 22
Last Quarter
Mar 1
New
Mar 8
First Quarter

Hourly Weather History & Observations

Time (EST) Temp. Windchill Dew Point Humidity Pressure Visibility Wind Dir Wind Speed Gust Speed Precip Events Conditions
12:18 AM 19.9 °F 11.1 °F 16.0 °F 85% 29.52 in 2.0 mi East 6.9 mph - 0.00 in Snow Light Snow
12:25 AM 19.9 °F 11.1 °F 16.0 °F 85% 29.52 in 1.2 mi East 6.9 mph - 0.00 in Snow Light Snow
12:55 AM 19.9 °F 11.1 °F 17.1 °F 89% 29.55 in 1.5 mi East 6.9 mph - 0.01 in Snow Light Snow
1:26 AM 19.9 °F 10.1 °F 17.1 °F 89% 29.50 in 2.0 mi East 8.1 mph - 0.00 in Snow Light Snow
1:36 AM 19.9 °F 11.1 °F 17.1 °F 89% 29.50 in 1.5 mi East 6.9 mph - 0.00 in Snow Light Snow
1:55 AM 19.9 °F 12.1 °F 17.1 °F 89% 29.53 in 1.5 mi East 5.8 mph - 0.01 in Snow Light Snow
2:27 AM 19.9 °F 11.1 °F 17.1 °F 89% 29.49 in 2.0 mi East 6.9 mph - 0.00 in Snow Light Snow
2:37 AM 19.9 °F 12.1 °F 17.1 °F 89% 29.48 in 3.0 mi East 5.8 mph - 0.00 in Snow Light Snow
2:55 AM 19.9 °F 13.4 °F 16.0 °F 85% 29.51 in 5.0 mi East 4.6 mph - 0.00 in Snow Light Snow
3:55 AM 19.9 °F 14.9 °F 16.0 °F 85% 29.50 in 6.0 mi East 3.5 mph - 0.00 in Snow Light Snow
4:50 AM 19.4 °F 14.3 °F 15.8 °F 86% 29.48 in 2.5 mi ENE 3.5 mph - 0.00 in Snow Light Snow
4:55 AM 19.9 °F 14.9 °F 16.0 °F 85% 29.51 in 2.5 mi ENE 3.5 mph - 0.00 in Snow Light Snow
5:03 AM 19.9 °F 14.9 °F 16.0 °F 85% 29.48 in 3.0 mi ENE 3.5 mph - 0.01 in Snow Light Snow
5:22 AM 19.9 °F 14.9 °F 17.1 °F 89% 29.48 in 2.5 mi ENE 3.5 mph - 0.01 in Snow Light Snow
5:50 AM 19.4 °F 14.3 °F 17.6 °F 93% 29.48 in 3.0 mi ENE 3.5 mph - 0.01 in Snow Light Snow
5:55 AM 19.9 °F 14.9 °F 17.1 °F 89% 29.52 in 2.5 mi NE 3.5 mph - 0.01 in Snow Light Snow
6:05 AM 19.9 °F 14.9 °F 17.1 °F 89% 29.49 in 3.0 mi NE 3.5 mph - 0.00 in Snow Light Snow
6:55 AM 19.9 °F 14.9 °F 17.1 °F 89% 29.52 in 3.0 mi NE 3.5 mph - 0.00 in Snow Light Snow
7:03 AM 19.9 °F 14.9 °F 17.1 °F 89% 29.50 in 2.5 mi NE 3.5 mph - 0.00 in Snow Light Snow
7:38 AM 19.9 °F 13.4 °F 17.1 °F 89% 29.51 in 3.0 mi NE 4.6 mph - 0.01 in Snow Light Snow
7:52 AM 19.4 °F 12.8 °F 17.6 °F 93% 29.52 in 2.5 mi NE 4.6 mph - 0.01 in Snow Light Snow
7:55 AM 19.9 °F 14.9 °F 17.1 °F 89% 29.55 in 2.5 mi NE 3.5 mph - 0.01 in Snow Light Snow
8:09 AM 19.9 °F 13.4 °F 17.1 °F 89% 29.52 in 1.8 mi NNE 4.6 mph - 0.00 in Snow Light Snow
8:21 AM 19.9 °F 14.9 °F 17.1 °F 89% 29.52 in 2.0 mi NNE 3.5 mph - 0.00 in Snow Light Snow
8:55 AM 19.9 °F 13.4 °F 16.0 °F 85% 29.57 in 2.0 mi NNE 4.6 mph - 0.01 in Snow Light Snow
9:14 AM 21.0 °F 13.4 °F 16.0 °F 81% 29.55 in 1.8 mi NNE 5.8 mph - 0.00 in Snow Light Snow
9:27 AM 21.0 °F 13.4 °F 16.0 °F 81% 29.55 in 1.2 mi NNE 5.8 mph - 0.00 in Snow Light Snow
9:55 AM 21.0 °F 13.4 °F 16.0 °F 81% 29.59 in 1.5 mi NNE 5.8 mph - 0.00 in Snow Light Snow
10:02 AM 21.0 °F 14.6 °F 16.0 °F 81% 29.56 in 1.8 mi NNE 4.6 mph - 0.01 in Snow Light Snow
10:55 AM 21.9 °F 15.7 °F 17.1 °F 82% 29.59 in 2.0 mi North 4.6 mph - 0.01 in Snow Light Snow
11:05 AM 21.9 °F 15.7 °F 17.1 °F 82% 29.56 in 2.5 mi NNE 4.6 mph - 0.00 in Snow Light Snow
11:33 AM 23.0 °F 18.4 °F 17.1 °F 78% 29.58 in 3.0 mi Variable 3.5 mph - 0.01 in Snow Light Snow
11:55 AM 24.1 °F - 17.1 °F 75% 29.61 in 1.8 mi Calm Calm - 0.01 in Snow Light Snow
12:01 PM 25.0 °F 20.7 °F 18.0 °F 75% 29.58 in 2.0 mi Variable 3.5 mph - 0.00 in Snow Light Snow
12:15 PM 24.1 °F - 17.1 °F 75% 29.58 in 4.0 mi Calm Calm - 0.00 in Snow Light Snow
12:36 PM 26.1 °F 21.9 °F 18.0 °F 71% 29.58 in 3.0 mi NW 3.5 mph - 0.00 in Snow Light Snow
12:55 PM 25.0 °F 20.7 °F 17.1 °F 72% 29.61 in 4.0 mi West 3.5 mph - 0.00 in Snow Light Snow
1:12 PM 24.1 °F 16.0 °F 17.1 °F 75% 29.58 in 2.0 mi NW 6.9 mph - 0.00 in Snow Light Snow
1:19 PM 24.1 °F 16.0 °F 18.0 °F 77% 29.58 in 1.5 mi WNW 6.9 mph - 0.00 in Snow Light Snow
1:55 PM 24.1 °F 16.0 °F 17.1 °F 75% 29.61 in 1.8 mi West 6.9 mph - 0.00 in Snow Light Snow
2:26 PM 23.0 °F 12.4 °F 17.1 °F 78% 29.60 in 3.0 mi WNW 10.4 mph - 0.00 in Snow Light Snow
2:47 PM 23.0 °F 13.1 °F 16.0 °F 74% 29.61 in 5.0 mi NW 9.2 mph - 0.00 in Snow Light Snow
2:55 PM 21.9 °F 9.8 °F 16.0 °F 78% 29.63 in 4.0 mi NW 12.7 mph - 0.00 in Snow Light Snow
3:27 PM 21.0 °F 9.3 °F 15.1 °F 78% 29.61 in 2.5 mi WNW 11.5 mph - 0.00 in Snow Light Snow
3:36 PM 21.0 °F 9.3 °F 16.0 °F 81% 29.62 in 1.8 mi WNW 11.5 mph - 0.00 in Snow Light Snow
3:55 PM 19.9 °F 6.2 °F 15.1 °F 81% 29.66 in 1.0 mi WNW 15.0 mph 24.2 mph 0.00 in Snow Light Snow
4:15 PM 19.9 °F 6.2 °F 14.0 °F 78% 29.64 in 0.8 mi WNW 15.0 mph 19.6 mph 0.00 in Snow Light Snow
4:22 PM 19.0 °F 3.6 °F 14.0 °F 81% 29.64 in 1.0 mi WNW 18.4 mph 23.0 mph 0.00 in Snow Light Snow
4:55 PM 18.0 °F 5.4 °F 12.0 °F 78% 29.70 in 1.2 mi WNW 11.5 mph 25.3 mph 0.00 in Snow Light Snow
5:12 PM 16.0 °F 0.6 °F 10.9 °F 81% 29.67 in 0.8 mi WNW 16.1 mph 25.3 mph 0.00 in Snow Light Snow
5:21 PM 15.1 °F 1.1 °F 9.0 °F 77% 29.68 in 1.2 mi WNW 12.7 mph 27.6 mph 0.00 in Snow Light Snow
5:29 PM 14.0 °F -2.5 °F 8.1 °F 77% 29.68 in 2.0 mi WNW 17.3 mph 25.3 mph 0.00 in Snow Light Snow
5:45 PM 12.9 °F -3.9 °F 7.0 °F 77% 29.69 in 3.0 mi WNW 17.3 mph - 0.00 in Snow Light Snow
5:55 PM 12.9 °F -0.9 °F 7.0 °F 77% 29.73 in 3.0 mi WNW 11.5 mph 21.9 mph 0.00 in Snow Light Snow
6:04 PM 12.0 °F -2.0 °F 7.0 °F 80% 29.70 in 2.5 mi WNW 11.5 mph - 0.00 in Snow Light Snow
6:20 PM 12.0 °F -2.7 °F 6.1 °F 77% 29.71 in 3.0 mi WNW 12.7 mph - 0.00 in Snow Light Snow
6:55 PM 10.9 °F -3.4 °F 6.1 °F 81% 29.77 in 4.0 mi WNW 11.5 mph - 0.00 in Snow Light Snow
7:55 PM 10.9 °F -1.8 °F 6.1 °F 81% 29.78 in 4.0 mi WNW 9.2 mph - 0.00 in Snow Light Snow
8:34 PM 10.9 °F 0.2 °F 6.1 °F 81% 29.75 in 4.0 mi WNW 6.9 mph - 0.00 in Snow Light Snow
8:55 PM 10.9 °F 1.4 °F 7.0 °F 84% 29.79 in 3.0 mi West 5.8 mph - 0.00 in Snow Light Snow
9:31 PM 10.0 °F 3.6 °F 7.0 °F 87% 29.76 in 2.5 mi WNW 3.5 mph - 0.00 in Snow Light Snow
9:40 PM 9.0 °F 2.4 °F 6.1 °F 88% 29.76 in 4.0 mi Variable 3.5 mph - 0.00 in Snow Light Snow
9:55 PM 8.1 °F 1.4 °F 5.0 °F 87% 29.80 in 10.0 mi Variable 3.5 mph - 0.00 in   Overcast
10:55 PM 10.9 °F 0.2 °F 3.0 °F 70% 29.83 in 10.0 mi NNE 6.9 mph - N/A   Overcast
11:55 PM 9.0 °F -3.2 °F 1.9 °F 73% 29.83 in 10.0 mi NNE 8.1 mph - N/A   Scattered Clouds